Lid_Strength_Index
7 7 8 8 8 8 8 7 7 6 6 7 7 7 7 7 8 9 10 9 11 14 13 12 11 12 11 11 12 10 10 9 9 11 12 11 12 11 12 11 13 14 15 15 14 16 17 8 9 13 9 7 7 7
7 7 8 8 8 8 8 7 7 6 6 7 7 7 7 7 8 8 10 9 9 12 13 10 9 9 9 9 10 9 10 10 8 10 9 10 11 10 12 15 9 14 12 14 13 14 7 7 8 6 5 7 7 7
6 7 7 8 8 8 8 8 7 6 6 7 7 7 7 7 7 8 9 9 11 13 12 12 11 8 8 8 7 10 9 8 8 7 9 9 12 9 14 12 11 9 8 12 11 9 9 7 6 6 6 7 7 6
6 6 7 7 8 9 8 8 7 6 6 7 7 7 7 7 7 8 9 9 11 12 16 12 8 8 6 7 7 7 7 7 6 5 9 10 11 8 11 10 11 9 9 10 11 9 8 7 6 7 7 6 7 7
6 6 6 7 8 8 8 7 7 6 6 7 7 7 7 7 7 7 8 8 9 12 14 12 9 8 7 6 7 6 7 9 9 10 10 10 8 9 9 9 11 9 10 12 13 8 8 7 6 6 7 7 7 7
6 6 6 6 8 8 7 7 7 6 6 7 7 7 7 7 7 9 11 9 9 9 13 14 8 8 7 7 7 6 7 8 9 9 8 7 6 9 11 12 8 9 9 7 8 7 7 7 6 6 6 7 7 7
5 6 6 6 7 7 7 7 7 6 7 7 7 8 7 7 8 11 11 9 9 9 12 13 11 8 7 7 6 5 6 7 8 9 9 9 8 8 11 12 10 9 9 7 6 7 9 7 7 6 7 7 6 7
5 6 6 6 7 7 7 7 7 6 7 8 8 8 7 7 7 10 7 7 8 10 10 13 12 11 7 8 8 4 6 6 6 8 7 8 8 9 12 11 10 9 9 7 6 7 7 6 6 7 7 7 8 9
5 5 6 6 7 7 7 7 6 7 8 9 8 7 7 9 11 8 6 6 7 9 12 13 14 14 8 8 7 6 6 10 6 9 9 8 10 13 11 11 11 10 9 8 7 7 7 8 7 7 8 8 10 11
5 5 6 6 6 7 7 7 6 8 9 9 9 9 10 9 7 5 8 10 11 9 10 13 10 12 10 10 10 9 7 10 12 10 7 11 11 10 10 10 10 9 8 7 8 9 8 8 8 8 9 9 10 11
4 6 6 6 6 7 7 6 8 9 9 11 12 11 10 8 9 11 13 13 12 13 11 11 11 12 8 12 12 9 9 9 13 11 11 11 13 11 10 10 9 9 8 7 7 7 7 7 8 8 9 10 10 11
5 5 6 6 6 6 6 7 8 9 11 11 11 10 9 10 12 14 15 12 13 14 11 11 10 10 9 9 10 8 10 10 14 8 11 14 11 10 10 11 10 9 7 6 7 8 7 7 7 8 10 10 10 10
5 5 6 6 6 6 6 8 8 8 8 9 11 12 12 12 15 16 16 14 14 11 10 10 12 11 10 9 10 10 12 12 8 12 13 12 11 11 11 11 10 8 7 6 7 7 7 7 7 8 9 10 10 11
5 5 6 6 6 6 7 8 8 8 10 12 12 15 14 15 14 13 14 14 12 11 11 12 12 12 11 11 11 12 9 9 13 16 15 12 12 12 11 10 10 10 8 7 6 8 8 8 8 9 10 10 10 11
5 5 6 6 6 6 7 8 8 8 11 12 12 16 15 12 13 13 13 12 12 11 11 12 11 10 11 12 12 11 12 14 14 15 13 12 11 11 11 11 11 9 7 5 6 7 8 8 8 9 9 10 10 11
5 6 6 6 6 7 7 8 8 9 10 11 12 14 13 14 14 13 13 13 11 11 11 11 12 12 14 13 14 16 15 17 13 12 11 10 11 11 11 11 10 8 7 6 6 6 8 9 9 9 9 10 10 11
6 7 5 6 7 8 8 9 10 11 12 12 13 12 13 13 13 13 12 11 11 12 13 12 14 16 12 14 17 14 14 13 11 10 10 10 10 10 10 10 10 9 9 8 7 7 7 8 8 9 10 10 10 11
9 6 6 7 8 9 9 9 10 11 13 12 13 13 12 11 12 12 11 10 10 11 12 12 11 14 15 17 15 13 11 9 9 9 10 9 10 9 10 10 9 9 9 9 8 7 7 8 8 9 9 9 10 11
6 6 7 7 9 10 12 12 11 12 12 12 12 12 11 12 12 11 11 11 11 10 11 12 14 14 14 12 13 11 9 10 10 10 9 10 9 10 10 10 10 10 10 10 9 9 7 7 9 9 8 9 10 11
6 7 7 8 8 9 11 11 9 12 13 12 11 12 12 12 12 12 12 12 12 12 13 14 13 12 12 11 10 9 9 8 9 11 11 10 9 10 10 10 10 10 10 10 10 10 9 8 9 9 9 9 10 11
8 8 8 9 10 10 10 11 11 11 12 12 11 11 13 12 13 13 13 12 13 13 14 12 12 11 9 9 8 8 8 8 9 9 10 10 10 10 10 10 10 10 11 11 11 11 10 10 9 9 8 8 9 10
9 8 10 10 11 11 11 10 11 11 12 12 12 11 13 13 14 13 12 13 13 13 12 11 10 10 10 10 9 9 9 9 8 7 7 9 11 11 10 10 11 11 11 12 11 11 11 11 10 9 8 8 8 9
9 9 10 10 12 12 12 10 12 12 13 13 12 13 13 13 13 12 14 13 12 11 10 9 9 9 9 9 10 10 10 10 8 8 8 8 9 10 10 10 10 11 12 12 11 11 11 11 10 10 9 7 7 7
8 11 13 13 12 14 11 13 12 12 13 13 13 14 14 13 12 13 14 14 12 11 10 10 9 10 9 10 11 11 11 10 8 7 8 9 10 10 9 10 10 10 11 12 11 11 11 11 11 10 11 10 8 8
14 14 13 15 12 13 14 14 13 13 14 14 14 14 14 12 14 14 14 13 13 12 10 10 9 9 10 11 11 11 11 10 9 9 9 9 10 10 9 10 10 10 11 12 12 12 11 11 11 11 11 11 11 10
16 14 14 14 14 14 14 15 14 14 14 14 13 12 12 13 14 14 12 12 12 11 10 10 10 10 10 10 10 10 10 10 8 9 9 9 9 10 11 11 11 11 10 11 12 13 12 12 12 12 12 12 12 11
17 16 13 11 11 12 12 12 12 12 14 14 13 13 13 15 14 12 12 11 11 10 9 9 9 9 10 10 10 9 9 9 9 9 8 8 8 9 10 11 11 10 10 11 11 12 13 13 13 13 12 12 11 11
14 13 15 13 13 12 13 13 13 14 13 11 11 13 14 13 13 12 11 10 10 9 9 9 8 8 9 9 9 9 9 8 8 8 8 8 8 9 9 9 9 10 9 10 11 11 12 12 13 13 13 13 12 11
14 13 12 14 13 13 13 13 12 12 10 10 12 13 14 13 13 11 11 10 9 9 10 9 10 9 9 9 9 8 8 8 9 10 10 10 10 10 9 9 9 9 9 9 10 12 12 12 12 13 12 12 13 12
14 11 13 13 14 14 12 11 12 11 11 11 12 13 13 13 12 11 10 10 9 9 8 9 9 9 9 8 9 9 8 8 8 9 10 11 11 10 10 9 9 9 9 9 10 10 11 10 11 11 12 12 12 13
12 12 13 13 13 12 11 11 11 11 12 13 12 13 13 13 12 11 11 10 9 9 9 9 8 7 7 8 8 8 9 8 8 8 8 8 9 9 9 9 9 9 9 9 10 10 11 11 12 12 13 13 14 14
13 13 13 14 13 11 10 11 12 13 13 13 13 12 13 13 14 11 10 9 9 8 8 7 8 8 7 7 7 7 8 8 8 8 8 8 9 9 9 9 8 9 9 10 10 10 11 11 12 13 13 14 14 14
13 13 13 12 13 12 12 12 13 14 13 13 13 13 13 13 14 10 8 8 7 7 7 7 7 7 7 7 8 8 8 8 9 10 10 10 11 11 10 9 8 8 9 10 10 11 12 13 13 14 14 15 15 15